Airfield :
LOGIN :

Register | Disclaimer

   EN    FR    IT 

 










Legend :    VFR   Marginal VFR   IFR   Intensive IFR   Very Intensive IFR
Visi :
Ceiling :
>= 8 km
>= 3000ft
5 to 8 km
1000 to 3000 ft
1500m to 5 km
500 to 1000 ft
800 to 1500m
200 to 500 ft
< 800m
< 200 ft
Symbols :   Thunderstorms  Fog  Heavy snow  Heavy precipitations  Wind > 20 kt
SIGMETs :     Misc.  Thunderstorms  Icing  Turbulence  Mountain Waves  Volcanic Ashes







- Airport Elevation : 1202 ft
- IATA code : IGS


ETSI - Ingolstadt

CURRENT METAR :
  • 202020Z AUTO 07004KT //// // ////// 00/M01 Q1010 ///

EXPIRED METARs :
  • 201920Z AUTO 06005KT //// // ////// 01/M01 Q1009 ///
  • 201820Z AUTO 06002KT //// // ////// 01/M02 Q1008 ///

TAF AMD TAF ETSI
Valid from the 20 at 16:00 until the 21 at 00:00 UTC


201604Z 2016/2024 09007KT 9999 NSW FEW025
BECMG 2019/2021 10006KT 9999 NSW BKN010
BECMG 2023/2024 09005KT 5000 BR OVC006 CANCEL 1700
No reported NOTAMs for that airfield.



MET'MAP, your aeronautical weather chart ! - Copyright ORBIFLY December 2007 - Disclaimer

ORBIFLY MET'MAP TEAM :

Programming & Development : Alexandra Zaïnal
Concept & Development : Baudouin d'Aumeries
Co-Development & Prog : Marc-Olivier Méhu
Technical & hardware support : Manuel Goepfert

Contact : metmap@orbifly.com




SOURCES & CREDITS :

   NOAA